国际空间站(ISS (ZARYA))

导读 | 豆包AI

ISS(ZARYA)即国际空间站曙光号功能货舱,由俄罗斯建造,以国际空间站名义于1998年11月20日发射,是国际空间站首个发射升空的组件,作为国际空间站的基础舱段,为后续舱段对接建设提供了支撑,在供电、通信、推进等方面支撑起早期空间站运营,是国际空间站建造历程的起点。

基本信息
目录编号:
25544
目录名称:
ISS (ZARYA)
国际标识:
1998-067A
轨道中心:
EARTH
卫星名称:
国际空间站
卫星全名:
国际空间站(ISS (ZARYA))
卫星状态:
在轨 (已飞行10025 天)
发射日期:
1998-11-20 UTC
国别 :
俄罗斯(独联体) (CIS)
星等 :
--
轨道信息
数据来源 国际轨道数据
星历时间: 2026-05-02T11:14:53+0800
10小时前
查看轨道信息
半长轴: 6797.618km
偏心率: 0.0007234
轨道倾角: 51.631°
近地点辐角 13.916°
升交点赤经 168.049°
平近点角 346.203°
近地点: 414.563km
远地点: 424.399km
周期: 92.960分钟
每日圈数: 15.490579
详细信息
使用方式:
暂无
2D轨道图
3D轨道图
轨道高度分析图
轨道倾角分析图
轨道综合分析图
查看轨道综合分析图